Regional Weather Roundup
Issued by NWS Sterling, VA

Home | Current Version | Previous Version | Text Only | Print | Product List | Glossary Off
Versions: 1 2 3 4 5 6 7 8 9 10 11 12 13 14 15 16 17 18 19 20 21 22 23 24 25 26 27 28 29 30 31 32 33 34 35 36 37 38 39 40 41 42 43 44 45 46 47 48 49 50

000
ASUS41 KLWX 292210
RWRLWX

REGIONAL WEATHER ROUNDUP
NATIONAL WEATHER SERVICE BALTIMORE MD/WASHINGTON DC
600 PM EDT FRI MAY 29 2015

Note: "FAIR" indicates few or no clouds below 12,000 feet
with no significant weather and/or obstructions to visibility.
 TC=TEMPERATURE CELSIUS

 * =Non NWS site. Station does not report precipitation (e.g. rain,
    snow, etc.), thunder, or fog.

DCZ001-MDZ009-015-VAZ040>042-051-053>054-292300-
WASHINGTON METRO

CITY           SKY/WX    TMP DP  RH WIND       PRES   REMARKS
WASHINGTON NAT MOSUNNY   85  70  60 SE7       30.18F
DULLES         PTSUNNY   81  68  64 SE8       30.18S
ANDREWS AFB    PTSUNNY   81  71  71 E9        30.18F
FT BELVOIR     MOSUNNY   82  71  70 VRB5      30.18S
QUANTICO       PTSUNNY   80  70  71 SE16      30.18S
COLLEGE PARK*  MOSUNNY   84  68  58 SE7       30.18S
LEESBURG*      PTSUNNY   86  68  54 S10G17    30.19S
MANASSAS*      PTSUNNY   82  72  69 S6        30.18S
GAITHERSBURG*  MOSUNNY   82  68  61 SE8       30.22F

$$

MDZ006>007-011-014-292300-
BALTIMORE METRO

CITY           SKY/WX    TMP DP  RH WIND       PRES   REMARKS
BWI AIRPORT    PTSUNNY   83  68  60 E14       30.18F
MD SCIENCE CTR   N/A     81  67  62 MISG      30.20S
MARTIN STATE   MOSUNNY   82  72  69 SE5       30.20F
ANNAPOLIS      MOSUNNY   77  68  73 SE10G22   30.20S
FORT MEADE*    MOSUNNY   81  68  65 E8        30.21S

$$

MDZ012-015-019>023-292300-
MARYLAND EASTERN SHORE

CITY           SKY/WX    TMP DP  RH WIND       PRES   REMARKS
OCEAN CITY     SUNNY     73  64  73 S7        30.24F
SALISBURY      PTSUNNY   74  61  63 S6        30.22F
CAMBRIDGE*     MOSUNNY   79  66  65 E7        30.20F
EASTON*        RAIN      73  73 100 CALM      30.24F

$$

MDZ017>025-292300-
SOUTHERN MARYLAND

CITY           SKY/WX    TMP DP  RH WIND       PRES   REMARKS
PATUXENT RIVER PTSUNNY   80  64  58 SE10      30.20S
ST INIGOES       N/A     80  64  58 SE10      30.19S
LEONARDTOWN*   SUNNY     81  64  57 SE8       30.22S

$$

MDZ003>005-292300-
NORTH CENTRAL MARYLAND

CITY           SKY/WX    TMP DP  RH WIND       PRES   REMARKS
FREDERICK*     MOSUNNY   86  68  54 S6        30.20F
HAGERSTOWN APT MOSUNNY   84  64  50 SE12      30.17F
WESTMINSTER*   MOSUNNY   84  66  54 SE7       30.20S

$$

MDZ501>502-292300-
WESTERN MARYLAND

CITY           SKY/WX    TMP DP  RH WIND       PRES   REMARKS
OAKLAND*       PTSUNNY   68 N/A N/A SE5       30.25F
CUMBERLAND*    PTSUNNY   73  63  68 S12G32    30.21R

$$

VAZ025>031-292300-
SHENANDOAH VALLEY

CITY           SKY/WX    TMP DP  RH WIND       PRES   REMARKS
WINCHESTER*    MOSUNNY   84  70  61 S7        30.18F
FRONT ROYAL*   FAIR      77  66  69 SW3       30.18S
LURAY*         FAIR      77  70  78 N5        30.19F
NEW MARKET*    FAIR      75  68  80 CALM      30.18S
STAUNTON*      MOSUNNY   82  67  61 NE5       30.21F
WAYNESBORO*    MOCLDY    74  62  65 SE13G24   30.22R

$$

WVZ021-048>050-054>055-292300-
EASTERN WEST VIRGINIA PANHANDLE

CITY           SKY/WX    TMP DP  RH WIND       PRES   REMARKS
MARTINSBURG    MOSUNNY   83  66  56 S9        30.18F
PETERSBURG*    CLOUDY    77  66  69 SE6       30.18F

$$

VAZ036>039-050-292300-
CENTRAL FOOTHILLS

CITY           SKY/WX    TMP DP  RH WIND       PRES   REMARKS
CHARLOTTESVILL PTSUNNY   80  63  55 SE6       30.18F
CULPEPER*      MOSUNNY   79  71  75 CALM      30.18S
ORANGE*        MOSUNNY   81  70  69 CALM      30.19F
GORDONSVILLE*  FAIR      74  68  82 CALM      30.18F
WARRENTON*     FAIR      82  72  71 E6        30.18S

$$

VAZ055>057-292300-
NORTH AND CENTRAL PIEDMONT

CITY           SKY/WX    TMP DP  RH WIND       PRES   REMARKS
FREDERICKSBRG*   N/A     75  69  80 W14       30.19R
STAFFORD*      CLOUDY    78  69  74 CALM      30.22R

$$

NCZ024-NYZ072-PAZ021-071-VAZ022-071-292300-
OTHER REGIONAL OBSERVATIONS

CITY           SKY/WX    TMP DP  RH WIND       PRES   REMARKS
NEW YORK CITY  PTSUNNY   73  55  53 VRB7      30.25F
PHILADELPHIA   PTSUNNY   86  65  49 SW7       30.19S
PITTSBURGH     PTSUNNY   82  64  54 S14       30.12F
ROANOKE        TSTM      72  64  76 S13G21    30.21R
RICHMOND       PTSUNNY   78  65  63 NW8       30.19S
RALEIGH        MOSUNNY   85  58  39 SE9       30.17F

$$

ANZ530>537-292300-
MARINE OBSERVATIONS

STATION/POSITION TIME  TEMP    WIND        PRES
                       AIR SEA DIR/SP/G
                 (UTC) (F)     (DEG/KT/KT) (MB)
THOMAS PT LIGHT  2200   75 73  120/ 11/ 12 1022.8F
BALT KEY BRIDGE  2100   78     100/  8/  9 1022.4F
COVE POINT       2100   74                 1023.5
LEWISETTA        2100   80 78              1022.5S
SOLOMONS ISLAND  2100      76                N/A
PINEY POINT      2100          150/ 15/ 17   N/A

$$




USA.gov is the U.S. government's official web portal to all federal, state and local government web resources and services.